QPF
0.00 0.00 0.00 0.00 0.00 0.00 0.00 0.00 0.00 0.00 0.00 0.00 0.00 0.00 0.00 0.00 0.00 0.00 0.00 0.00 0.00 0.00 0.00 0.01 0.03 0.02 0.02 0.01 0.02 0.02 0.03 0.02 0.02 0.02 0.02 0.02 0.02 0.01 0.01 0.02 0.02 0.02 0.02 0.02 0.02 0.02 0.02 0.01 0.01
0.00 0.00 0.00 0.00 0.00 0.00 0.00 0.00 0.00 0.00 0.00 0.00 0.00 0.00 0.00 0.00 0.00 0.00 0.00 0.01 0.01 0.00 0.00 0.01 0.03 0.02 0.02 0.01 0.02 0.01 0.02 0.02 0.02 0.02 0.02 0.01 0.03 0.03 0.01 0.01 0.02 0.02 0.02 0.01 0.02 0.02 0.01 0.01 0.01
0.00 0.00 0.00 0.00 0.00 0.00 0.00 0.00 0.00 0.00 0.00 0.00 0.00 0.00 0.00 0.00 0.00 0.00 0.00 0.00 0.01 0.01 0.01 0.01 0.03 0.03 0.02 0.02 0.01 0.01 0.02 0.02 0.02 0.02 0.02 0.01 0.03 0.05 0.03 0.02 0.02 0.02 0.02 0.01 0.02 0.01 0.01 0.01 0.01
0.00 0.00 0.00 0.00 0.00 0.00 0.00 0.00 0.00 0.00 0.00 0.00 0.00 0.00 0.00 0.00 0.00 0.00 0.00 0.00 0.01 0.01 0.01 0.01 0.02 0.03 0.03 0.02 0.02 0.02 0.02 0.02 0.02 0.02 0.02 0.02 0.02 0.03 0.03 0.03 0.03 0.03 0.02 0.01 0.01 0.01 0.01 0.01 0.01
0.00 0.00 0.00 0.00 0.00 0.00 0.00 0.00 0.00 0.00 0.00 0.00 0.00 0.00 0.00 0.00 0.00 0.00 0.00 0.00 0.01 0.02 0.02 0.02 0.03 0.04 0.03 0.02 0.02 0.02 0.03 0.03 0.03 0.02 0.02 0.03 0.03 0.03 0.03 0.02 0.02 0.03 0.02 0.02 0.02 0.01 0.01 0.00 0.00
0.00 0.00 0.00 0.00 0.00 0.00 0.00 0.00 0.00 0.00 0.00 0.00 0.00 0.00 0.00 0.00 0.00 0.00 0.00 0.00 0.00 0.01 0.03 0.03 0.05 0.04 0.04 0.03 0.03 0.03 0.03 0.03 0.03 0.04 0.04 0.04 0.04 0.06 0.04 0.02 0.02 0.02 0.02 0.02 0.02 0.01 0.01 0.00 0.00
0.00 0.00 0.00 0.00 0.00 0.00 0.00 0.00 0.00 0.00 0.00 0.00 0.00 0.00 0.01 0.00 0.00 0.00 0.00 0.00 0.00 0.01 0.02 0.03 0.05 0.05 0.06 0.05 0.04 0.02 0.02 0.02 0.03 0.03 0.04 0.04 0.05 0.07 0.05 0.03 0.02 0.02 0.02 0.02 0.02 0.02 0.01 0.00 0.00
0.00 0.00 0.00 0.00 0.00 0.00 0.00 0.00 0.00 0.00 0.00 0.00 0.00 0.00 0.00 0.01 0.01 0.01 0.01 0.01 0.00 0.01 0.02 0.03 0.05 0.04 0.06 0.06 0.04 0.03 0.02 0.02 0.03 0.02 0.02 0.02 0.04 0.06 0.06 0.03 0.02 0.01 0.01 0.02 0.02 0.02 0.01 0.00 0.00
0.00 0.00 0.00 0.00 0.00 0.00 0.00 0.00 0.00 0.00 0.00 0.00 0.00 0.00 0.00 0.01 0.01 0.01 0.01 0.01 0.01 0.01 0.01 0.02 0.04 0.04 0.05 0.05 0.05 0.02 0.02 0.03 0.03 0.02 0.01 0.02 0.03 0.06 0.06 0.04 0.03 0.02 0.01 0.01 0.02 0.02 0.02 0.01 0.00
0.00 0.00 0.00 0.00 0.00 0.00 0.00 0.00 0.00 0.00 0.00 0.00 0.01 0.01 0.01 0.01 0.02 0.03 0.02 0.02 0.01 0.01 0.01 0.02 0.03 0.04 0.05 0.05 0.04 0.02 0.02 0.02 0.02 0.02 0.01 0.02 0.03 0.05 0.06 0.05 0.04 0.03 0.02 0.01 0.02 0.02 0.02 0.01 0.00
0.00 0.00 0.00 0.00 0.00 0.00 0.00 0.00 0.00 0.00 0.00 0.00 0.00 0.00 0.00 0.01 0.02 0.03 0.03 0.02 0.01 0.01 0.01 0.01 0.03 0.04 0.05 0.05 0.05 0.03 0.02 0.02 0.02 0.01 0.01 0.02 0.03 0.07 0.09 0.07 0.06 0.05 0.03 0.02 0.01 0.02 0.01 0.01 0.00
0.00 0.00 0.00 0.00 0.00 0.00 0.00 0.00 0.00 0.00 0.00 0.00 0.00 0.00 0.00 0.01 0.02 0.02 0.03 0.02 0.01 0.01 0.02 0.03 0.04 0.05 0.05 0.06 0.06 0.05 0.04 0.03 0.02 0.01 0.01 0.02 0.03 0.08 0.11 0.08 0.05 0.05 0.04 0.02 0.01 0.01 0.01 0.01 0.00
0.00 0.00 0.00 0.00 0.00 0.00 0.00 0.00 0.00 0.00 0.00 0.00 0.00 0.00 0.00 0.01 0.01 0.01 0.01 0.01 0.01 0.01 0.02 0.04 0.05 0.07 0.07 0.07 0.07 0.05 0.05 0.04 0.03 0.02 0.02 0.02 0.03 0.08 0.13 0.10 0.06 0.06 0.04 0.03 0.02 0.01 0.01 0.01 0.00
0.00 0.00 0.00 0.00 0.00 0.00 0.00 0.00 0.00 0.00 0.00 0.00 0.00 0.00 0.00 0.00 0.01 0.01 0.01 0.01 0.01 0.01 0.02 0.05 0.07 0.08 0.10 0.09 0.10 0.05 0.05 0.05 0.05 0.02 0.02 0.03 0.04 0.11 0.18 0.12 0.09 0.07 0.05 0.04 0.03 0.03 0.02 0.01 0.01
0.00 0.00 0.00 0.00 0.00 0.00 0.00 0.00 0.00 0.00 0.00 0.00 0.00 0.01 0.01 0.01 0.01 0.01 0.01 0.01 0.01 0.01 0.01 0.04 0.09 0.09 0.10 0.12 0.13 0.08 0.06 0.05 0.05 0.03 0.02 0.03 0.05 0.13 0.23 0.15 0.12 0.09 0.07 0.06 0.04 0.03 0.03 0.02 0.01
0.00 0.00 0.00 0.00 0.00 0.00 0.00 0.00 0.00 0.00 0.00 0.00 0.00 0.00 0.01 0.01 0.02 0.02 0.03 0.03 0.03 0.02 0.01 0.02 0.04 0.08 0.10 0.12 0.14 0.12 0.09 0.07 0.06 0.04 0.02 0.03 0.05 0.15 0.26 0.19 0.16 0.13 0.10 0.07 0.05 0.03 0.03 0.04 0.03
0.01 0.00 0.00 0.00 0.00 0.00 0.00 0.00 0.00 0.00 0.00 0.00 0.00 0.00 0.00 0.01 0.01 0.03 0.04 0.04 0.04 0.04 0.02 0.01 0.02 0.06 0.10 0.11 0.13 0.14 0.12 0.10 0.07 0.04 0.02 0.03 0.06 0.13 0.25 0.21 0.18 0.18 0.15 0.10 0.06 0.05 0.05 0.05 0.05
0.00 0.00 0.00 0.00 0.00 0.00 0.00 0.00 0.00 0.00 0.00 0.00 0.00 0.01 0.01 0.01 0.02 0.03 0.04 0.06 0.05 0.05 0.05 0.03 0.03 0.07 0.10 0.10 0.11 0.13 0.14 0.12 0.09 0.06 0.03 0.05 0.08 0.12 0.20 0.21 0.18 0.18 0.17 0.13 0.09 0.08 0.08 0.08 0.07
0.00 0.00 0.00 0.00 0.00 0.00 0.00 0.00 0.00 0.00 0.00 0.00 0.01 0.01 0.01 0.01 0.01 0.02 0.04 0.05 0.05 0.05 0.05 0.04 0.03 0.05 0.07 0.08 0.08 0.08 0.10 0.10 0.09 0.07 0.04 0.07 0.12 0.12 0.18 0.21 0.18 0.16 0.15 0.11 0.10 0.09 0.08 0.08 0.08
0.01 0.01 0.01 0.00 0.00 0.00 0.00 0.00 0.00 0.00 0.00 0.00 0.01 0.01 0.01 0.01 0.01 0.03 0.05 0.06 0.05 0.05 0.05 0.05 0.05 0.05 0.06 0.07 0.07 0.07 0.06 0.08 0.07 0.06 0.05 0.09 0.11 0.14 0.18 0.20 0.18 0.15 0.14 0.09 0.07 0.09 0.09 0.08 0.06
0.01 0.01 0.00 0.00 0.00 0.01 0.01 0.00 0.00 0.00 0.00 0.00 0.00 0.01 0.01 0.01 0.01 0.02 0.06 0.11 0.08 0.07 0.06 0.05 0.06 0.06 0.06 0.07 0.08 0.08 0.07 0.07 0.08 0.07 0.06 0.07 0.09 0.13 0.17 0.18 0.16 0.14 0.13 0.09 0.06 0.07 0.09 0.09 0.08
0.02 0.01 0.01 0.01 0.01 0.01 0.01 0.01 0.00 0.00 0.00 0.00 0.00 0.00 0.01 0.01 0.01 0.02 0.03 0.09 0.12 0.11 0.09 0.07 0.06 0.07 0.06 0.07 0.08 0.09 0.09 0.07 0.05 0.06 0.06 0.05 0.07 0.11 0.13 0.16 0.17 0.13 0.11 0.09 0.06 0.06 0.07 0.09 0.08
0.01 0.01 0.01 0.02 0.02 0.02 0.01 0.01 0.00 0.00 0.00 0.00 0.00 0.00 0.01 0.01 0.01 0.01 0.01 0.03 0.07 0.09 0.12 0.11 0.09 0.08 0.07 0.08 0.09 0.10 0.09 0.08 0.06 0.07 0.07 0.06 0.07 0.09 0.11 0.12 0.14 0.12 0.10 0.08 0.06 0.05 0.06 0.08 0.09
0.01 0.01 0.02 0.03 0.05 0.05 0.01 0.01 0.00 0.00 0.00 0.00 0.01 0.01 0.01 0.01 0.00 0.00 0.01 0.02 0.04 0.05 0.08 0.10 0.09 0.08 0.07 0.08 0.09 0.09 0.09 0.08 0.07 0.06 0.06 0.07 0.06 0.06 0.07 0.08 0.10 0.11 0.10 0.08 0.06 0.05 0.05 0.06 0.08
0.02 0.03 0.05 0.06 0.06 0.03 0.01 0.01 0.00 0.00 0.00 0.01 0.01 0.01 0.01 0.01 0.00 0.00 0.01 0.02 0.03 0.03 0.04 0.06 0.07 0.07 0.06 0.07 0.08 0.08 0.07 0.07 0.08 0.07 0.06 0.06 0.06 0.05 0.05 0.06 0.09 0.10 0.09 0.09 0.07 0.06 0.06 0.05 0.06
0.04 0.03 0.03 0.03 0.02 0.01 0.01 0.01 0.00 0.00 0.01 0.00 0.01 0.01 0.01 0.01 0.01 0.01 0.01 0.02 0.02 0.02 0.03 0.04 0.05 0.06 0.06 0.06 0.06 0.08 0.08 0.07 0.09 0.09 0.07 0.06 0.06 0.05 0.05 0.05 0.06 0.07 0.07 0.07 0.07 0.06 0.05 0.06 0.05
0.04 0.03 0.02 0.03 0.02 0.01 0.01 0.01 0.01 0.01 0.00 0.00 0.00 0.01 0.02 0.01 0.01 0.01 0.01 0.01 0.01 0.01 0.03 0.04 0.04 0.04 0.04 0.04 0.06 0.08 0.07 0.06 0.08 0.09 0.06 0.06 0.05 0.04 0.04 0.04 0.05 0.05 0.05 0.05 0.05 0.04 0.04 0.05 0.05
0.03 0.03 0.03 0.04 0.03 0.02 0.01 0.01 0.01 0.01 0.01 0.00 0.00 0.00 0.01 0.01 0.01 0.01 0.01 0.01 0.01 0.01 0.01 0.02 0.02 0.02 0.02 0.03 0.05 0.07 0.07 0.07 0.07 0.08 0.07 0.05 0.05 0.04 0.03 0.03 0.03 0.04 0.03 0.03 0.03 0.03 0.03 0.03 0.03
0.03 0.04 0.05 0.04 0.03 0.02 0.02 0.02 0.01 0.01 0.01 0.01 0.00 0.00 0.00 0.00 0.01 0.01 0.00 0.00 0.01 0.01 0.01 0.02 0.02 0.02 0.02 0.02 0.04 0.06 0.07 0.07 0.07 0.08 0.08 0.06 0.06 0.05 0.04 0.03 0.02 0.02 0.02 0.03 0.03 0.03 0.02 0.02 0.02
0.03 0.03 0.04 0.05 0.03 0.02 0.02 0.02 0.01 0.01 0.01 0.01 0.00 0.00 0.00 0.00 0.00 0.01 0.00 0.00 0.01 0.01 0.01 0.01 0.02 0.02 0.02 0.02 0.03 0.05 0.07 0.06 0.06 0.06 0.07 0.07 0.07 0.06 0.05 0.04 0.03 0.02 0.02 0.02 0.03 0.03 0.02 0.01 0.02
MSLP
1013.27 1013.89 1014.63 1015.37 1016.00 1016.41 1016.54 1016.39 1016.00 1015.45 1014.85 1014.33 1013.94 1013.72 1013.65 1013.66 1013.68 1013.63 1013.45 1013.14 1012.73 1012.30 1011.92 1011.66 1011.58 1011.67 1011.89 1012.19 1012.50 1012.77 1012.97 1013.10 1013.20 1013.30 1013.46 1013.68 1013.97 1014.31 1014.66 1014.99 1015.27 1015.48 1015.63 1015.76 1015.90 1016.07 1016.29 1016.56 1016.85
1013.62 1014.32 1015.07 1015.76 1016.26 1016.49 1016.40 1016.02 1015.40 1014.65 1013.91 1013.30 1012.87 1012.67 1012.66 1012.77 1012.90 1012.97 1012.92 1012.73 1012.44 1012.11 1011.81 1011.62 1011.58 1011.69 1011.93 1012.23 1012.54 1012.81 1013.02 1013.17 1013.27 1013.38 1013.53 1013.75 1014.02 1014.34 1014.67 1014.98 1015.24 1015.45 1015.61 1015.76 1015.91 1016.09 1016.31 1016.58 1016.89
1014.04 1014.77 1015.49 1016.07 1016.42 1016.45 1016.15 1015.56 1014.76 1013.88 1013.05 1012.38 1011.95 1011.77 1011.80 1011.97 1012.18 1012.34 1012.39 1012.31 1012.13 1011.90 1011.70 1011.59 1011.61 1011.76 1012.01 1012.31 1012.61 1012.87 1013.07 1013.21 1013.31 1013.41 1013.55 1013.74 1013.99 1014.28 1014.58 1014.87 1015.12 1015.33 1015.51 1015.68 1015.85 1016.06 1016.31 1016.60 1016.92
1014.47 1015.19 1015.83 1016.28 1016.45 1016.30 1015.82 1015.08 1014.16 1013.21 1012.35 1011.69 1011.27 1011.12 1011.18 1011.39 1011.63 1011.84 1011.94 1011.94 1011.85 1011.73 1011.63 1011.60 1011.69 1011.87 1012.14 1012.44 1012.72 1012.95 1013.12 1013.23 1013.31 1013.40 1013.51 1013.67 1013.89 1014.15 1014.42 1014.69 1014.94 1015.17 1015.37 1015.58 1015.80 1016.04 1016.33 1016.64 1016.98
1014.88 1015.54 1016.07 1016.36 1016.36 1016.05 1015.44 1014.60 1013.65 1012.71 1011.89 1011.27 1010.91 1010.79 1010.86 1011.06 1011.30 1011.50 1011.63 1011.67 1011.65 1011.61 1011.60 1011.66 1011.81 1012.04 1012.32 1012.60 1012.85 1013.05 1013.18 1013.25 1013.30 1013.35 1013.44 1013.57 1013.75 1013.98 1014.23 1014.49 1014.74 1014.99 1015.24 1015.49 1015.77 1016.07 1016.40 1016.75 1017.11
1015.20 1015.77 1016.15 1016.28 1016.13 1015.68 1015.00 1014.14 1013.23 1012.37 1011.65 1011.13 1010.84 1010.76 1010.84 1011.01 1011.20 1011.37 1011.47 1011.52 1011.54 1011.56 1011.63 1011.76 1011.97 1012.23 1012.51 1012.77 1012.99 1013.14 1013.22 1013.26 1013.28 1013.30 1013.36 1013.46 1013.62 1013.82 1014.05 1014.30 1014.56 1014.83 1015.12 1015.44 1015.77 1016.14 1016.52 1016.90 1017.29
1015.39 1015.83 1016.06 1016.03 1015.74 1015.21 1014.50 1013.69 1012.88 1012.15 1011.58 1011.20 1011.00 1010.96 1011.04 1011.16 1011.29 1011.38 1011.44 1011.47 1011.49 1011.56 1011.67 1011.86 1012.11 1012.38 1012.66 1012.90 1013.09 1013.20 1013.25 1013.26 1013.25 1013.26 1013.30 1013.39 1013.52 1013.69 1013.89 1014.13 1014.39 1014.69 1015.02 1015.39 1015.79 1016.22 1016.65 1017.08 1017.49
1015.45 1015.74 1015.81 1015.63 1015.23 1014.64 1013.95 1013.22 1012.55 1011.99 1011.59 1011.35 1011.26 1011.27 1011.33 1011.41 1011.46 1011.48 1011.47 1011.46 1011.47 1011.55 1011.69 1011.91 1012.17 1012.46 1012.73 1012.95 1013.11 1013.20 1013.23 1013.24 1013.23 1013.24 1013.28 1013.36 1013.46 1013.60 1013.77 1013.98 1014.23 1014.53 1014.88 1015.30 1015.76 1016.25 1016.75 1017.22 1017.65
1015.37 1015.52 1015.43 1015.12 1014.63 1014.01 1013.36 1012.73 1012.20 1011.81 1011.57 1011.48 1011.48 1011.53 1011.59 1011.62 1011.60 1011.55 1011.47 1011.42 1011.41 1011.49 1011.64 1011.86 1012.13 1012.41 1012.67 1012.87 1013.02 1013.11 1013.16 1013.18 1013.21 1013.24 1013.29 1013.37 1013.45 1013.55 1013.67 1013.83 1014.04 1014.32 1014.68 1015.12 1015.64 1016.19 1016.75 1017.27 1017.74
1015.20 1015.21 1014.99 1014.57 1014.02 1013.39 1012.77 1012.23 1011.82 1011.57 1011.47 1011.48 1011.56 1011.64 1011.69 1011.68 1011.61 1011.49 1011.37 1011.28 1011.26 1011.32 1011.47 1011.69 1011.96 1012.22 1012.47 1012.67 1012.82 1012.93 1013.01 1013.08 1013.16 1013.24 1013.32 1013.39 1013.45 1013.50 1013.56 1013.65 1013.79 1014.02 1014.36 1014.82 1015.36 1015.97 1016.60 1017.19 1017.71
1015.00 1014.90 1014.57 1014.08 1013.47 1012.83 1012.24 1011.76 1011.44 1011.28 1011.25 1011.32 1011.43 1011.52 1011.55 1011.51 1011.40 1011.25 1011.11 1011.01 1010.97 1011.04 1011.18 1011.40 1011.65 1011.90 1012.13 1012.33 1012.50 1012.65 1012.79 1012.92 1013.06 1013.20 1013.32 1013.40 1013.43 1013.43 1013.41 1013.41 1013.47 1013.63 1013.93 1014.37 1014.94 1015.60 1016.30 1016.98 1017.58
1014.81 1014.63 1014.25 1013.70 1013.06 1012.41 1011.83 1011.38 1011.08 1010.95 1010.94 1011.01 1011.10 1011.16 1011.16 1011.09 1010.96 1010.80 1010.66 1010.56 1010.55 1010.62 1010.77 1010.98 1011.23 1011.47 1011.70 1011.91 1012.10 1012.29 1012.49 1012.70 1012.91 1013.10 1013.26 1013.34 1013.36 1013.30 1013.20 1013.10 1013.07 1013.15 1013.39 1013.81 1014.39 1015.10 1015.88 1016.65 1017.36
1014.69 1014.47 1014.05 1013.49 1012.84 1012.18 1011.60 1011.13 1010.81 1010.64 1010.58 1010.59 1010.61 1010.61 1010.57 1010.46 1010.31 1010.16 1010.03 1009.97 1009.99 1010.10 1010.27 1010.50 1010.74 1010.99 1011.22 1011.44 1011.66 1011.89 1012.14 1012.40 1012.67 1012.92 1013.10 1013.19 1013.19 1013.08 1012.91 1012.73 1012.61 1012.62 1012.80 1013.19 1013.77 1014.52 1015.37 1016.25 1017.09
1014.64 1014.42 1014.01 1013.45 1012.81 1012.15 1011.55 1011.05 1010.67 1010.42 1010.26 1010.16 1010.07 1009.98 1009.85 1009.69 1009.53 1009.38 1009.29 1009.27 1009.35 1009.50 1009.73 1009.98 1010.25 1010.51 1010.76 1010.99 1011.22 1011.47 1011.74 1012.04 1012.34 1012.61 1012.81 1012.91 1012.89 1012.76 1012.54 1012.31 1012.13 1012.08 1012.21 1012.57 1013.15 1013.93 1014.85 1015.84 1016.80
1014.66 1014.45 1014.06 1013.53 1012.92 1012.28 1011.67 1011.13 1010.68 1010.33 1010.04 1009.81 1009.59 1009.37 1009.14 1008.91 1008.71 1008.57 1008.50 1008.54 1008.67 1008.89 1009.18 1009.49 1009.80 1010.09 1010.35 1010.58 1010.81 1011.05 1011.32 1011.61 1011.90 1012.16 1012.36 1012.46 1012.44 1012.31 1012.09 1011.85 1011.65 1011.58 1011.69 1012.03 1012.61 1013.41 1014.39 1015.45 1016.53
1014.72 1014.53 1014.17 1013.67 1013.10 1012.49 1011.89 1011.33 1010.82 1010.38 1009.99 1009.62 1009.26 1008.90 1008.56 1008.24 1007.98 1007.82 1007.76 1007.84 1008.03 1008.32 1008.68 1009.05 1009.42 1009.74 1010.02 1010.25 1010.46 1010.66 1010.87 1011.10 1011.34 1011.56 1011.74 1011.83 1011.83 1011.73 1011.56 1011.36 1011.20 1011.15 1011.27 1011.61 1012.20 1013.01 1014.00 1015.12 1016.28
1014.78 1014.58 1014.24 1013.79 1013.27 1012.70 1012.14 1011.60 1011.09 1010.60 1010.12 1009.65 1009.16 1008.68 1008.21 1007.78 1007.44 1007.23 1007.16 1007.24 1007.47 1007.82 1008.25 1008.69 1009.12 1009.48 1009.77 1009.99 1010.14 1010.27 1010.39 1010.52 1010.66 1010.81 1010.94 1011.03 1011.06 1011.03 1010.94 1010.83 1010.76 1010.78 1010.96 1011.32 1011.91 1012.71 1013.71 1014.85 1016.04
1014.82 1014.59 1014.25 1013.83 1013.36 1012.87 1012.38 1011.91 1011.44 1010.96 1010.46 1009.92 1009.35 1008.75 1008.16 1007.61 1007.17 1006.87 1006.75 1006.81 1007.06 1007.44 1007.92 1008.42 1008.90 1009.29 1009.58 1009.77 1009.85 1009.87 1009.86 1009.85 1009.86 1009.91 1009.98 1010.06 1010.13 1010.19 1010.23 1010.27 1010.33 1010.47 1010.73 1011.14 1011.73 1012.52 1013.49 1014.60 1015.80
1014.86 1014.56 1014.20 1013.79 1013.37 1012.97 1012.59 1012.23 1011.86 1011.46 1010.99 1010.45 1009.83 1009.15 1008.45 1007.78 1007.21 1006.80 1006.59 1006.59 1006.81 1007.19 1007.69 1008.23 1008.73 1009.15 1009.42 1009.55 1009.54 1009.43 1009.27 1009.09 1008.95 1008.87 1008.87 1008.93 1009.06 1009.23 1009.42 1009.64 1009.88 1010.17 1010.54 1011.01 1011.62 1012.38 1013.30 1014.36 1015.51
1014.94 1014.54 1014.12 1013.71 1013.34 1013.04 1012.79 1012.58 1012.36 1012.09 1011.73 1011.23 1010.61 1009.88 1009.09 1008.30 1007.59 1007.04 1006.70 1006.60 1006.74 1007.08 1007.56 1008.10 1008.61 1009.00 1009.24 1009.30 1009.18 1008.93 1008.60 1008.24 1007.94 1007.73 1007.65 1007.71 1007.89 1008.18 1008.53 1008.94 1009.37 1009.83 1010.33 1010.88 1011.51 1012.25 1013.10 1014.08 1015.17
1015.15 1014.62 1014.12 1013.68 1013.36 1013.16 1013.05 1013.01 1012.98 1012.87 1012.64 1012.24 1011.65 1010.90 1010.04 1009.14 1008.29 1007.58 1007.09 1006.86 1006.88 1007.13 1007.54 1008.03 1008.49 1008.85 1009.02 1008.99 1008.75 1008.35 1007.86 1007.34 1006.88 1006.55 1006.40 1006.45 1006.68 1007.07 1007.59 1008.18 1008.80 1009.43 1010.06 1010.69 1011.35 1012.06 1012.86 1013.75 1014.75
1015.58 1014.91 1014.31 1013.85 1013.55 1013.44 1013.47 1013.60 1013.74 1013.81 1013.72 1013.43 1012.90 1012.15 1011.23 1010.23 1009.25 1008.39 1007.74 1007.34 1007.22 1007.34 1007.64 1008.03 1008.40 1008.67 1008.75 1008.61 1008.26 1007.72 1007.08 1006.42 1005.83 1005.41 1005.20 1005.23 1005.51 1005.99 1006.64 1007.38 1008.17 1008.95 1009.70 1010.41 1011.10 1011.81 1012.55 1013.37 1014.29
1016.28 1015.49 1014.81 1014.30 1014.03 1013.97 1014.12 1014.38 1014.68 1014.89 1014.94 1014.74 1014.27 1013.53 1012.58 1011.50 1010.40 1009.40 1008.59 1008.03 1007.74 1007.70 1007.85 1008.10 1008.35 1008.49 1008.46 1008.21 1007.74 1007.09 1006.33 1005.56 1004.89 1004.39 1004.13 1004.16 1004.46 1005.01 1005.75 1006.61 1007.51 1008.41 1009.26 1010.04 1010.78 1011.49 1012.20 1012.97 1013.81
1017.30 1016.41 1015.66 1015.12 1014.84 1014.83 1015.04 1015.39 1015.78 1016.10 1016.24 1016.11 1015.68 1014.95 1013.98 1012.85 1011.66 1010.55 1009.61 1008.89 1008.44 1008.23 1008.21 1008.29 1008.38 1008.37 1008.20 1007.83 1007.25 1006.51 1005.68 1004.84 1004.12 1003.58 1003.30 1003.32 1003.64 1004.21 1005.00 1005.92 1006.89 1007.86 1008.78 1009.63 1010.40 1011.13 1011.84 1012.57 1013.37
1018.61 1017.66 1016.86 1016.30 1016.01 1016.00 1016.22 1016.61 1017.03 1017.38 1017.55 1017.45 1017.04 1016.32 1015.33 1014.18 1012.95 1011.77 1010.73 1009.89 1009.29 1008.92 1008.72 1008.62 1008.53 1008.36 1008.04 1007.55 1006.88 1006.08 1005.20 1004.34 1003.61 1003.07 1002.79 1002.80 1003.11 1003.68 1004.46 1005.39 1006.38 1007.37 1008.32 1009.21 1010.02 1010.78 1011.51 1012.24 1013.01
1020.13 1019.16 1018.35 1017.77 1017.46 1017.43 1017.62 1017.96 1018.35 1018.67 1018.81 1018.69 1018.26 1017.54 1016.57 1015.42 1014.19 1012.99 1011.90 1010.99 1010.29 1009.77 1009.40 1009.12 1008.85 1008.50 1008.04 1007.43 1006.69 1005.84 1004.96 1004.12 1003.41 1002.89 1002.63 1002.64 1002.93 1003.47 1004.20 1005.08 1006.03 1007.00 1007.95 1008.85 1009.69 1010.49 1011.26 1012.01 1012.79
1021.74 1020.80 1020.01 1019.43 1019.10 1019.01 1019.13 1019.38 1019.67 1019.89 1019.94 1019.76 1019.31 1018.58 1017.63 1016.52 1015.34 1014.17 1013.09 1012.15 1011.38 1010.76 1010.25 1009.80 1009.35 1008.84 1008.24 1007.53 1006.72 1005.85 1004.99 1004.19 1003.53 1003.07 1002.83 1002.85 1003.10 1003.58 1004.23 1005.02 1005.89 1006.80 1007.71 1008.61 1009.47 1010.31 1011.12 1011.92 1012.71
1023.30 1022.44 1021.70 1021.14 1020.78 1020.62 1020.64 1020.76 1020.91 1020.98 1020.91 1020.64 1020.14 1019.41 1018.50 1017.45 1016.35 1015.26 1014.25 1013.33 1012.54 1011.85 1011.23 1010.65 1010.04 1009.38 1008.64 1007.84 1006.98 1006.11 1005.28 1004.55 1003.96 1003.56 1003.36 1003.37 1003.59 1003.99 1004.55 1005.22 1005.98 1006.80 1007.65 1008.51 1009.38 1010.25 1011.11 1011.95 1012.77
1024.69 1023.94 1023.28 1022.75 1022.37 1022.15 1022.05 1022.02 1022.00 1021.92 1021.71 1021.33 1020.77 1020.05 1019.18 1018.22 1017.23 1016.25 1015.33 1014.49 1013.71 1013.00 1012.30 1011.60 1010.86 1010.07 1009.22 1008.34 1007.44 1006.58 1005.80 1005.13 1004.62 1004.28 1004.13 1004.14 1004.33 1004.65 1005.09 1005.65 1006.28 1006.99 1007.76 1008.58 1009.44 1010.32 1011.21 1012.10 1012.96
1025.84 1025.21 1024.64 1024.16 1023.78 1023.50 1023.30 1023.13 1022.95 1022.70 1022.36 1021.88 1021.27 1020.54 1019.73 1018.86 1017.99 1017.14 1016.34 1015.58 1014.85 1014.12 1013.38 1012.59 1011.75 1010.85 1009.91 1008.96 1008.04 1007.18 1006.44 1005.84 1005.41 1005.13 1005.02 1005.04 1005.19 1005.45 1005.79 1006.22 1006.74 1007.33 1008.02 1008.78 1009.61 1010.50 1011.41 1012.33 1013.21
Thickness
5695 5696 5696 5689 5672 5657 5662 5675 5684 5689 5694 5702 5705 5704 5702 5703 5701 5703 5716 5723 5724 5724 5723 5722 5721 5720 5719 5719 5719 5719 5719 5719 5719 5719 5719 5719 5719 5719 5719 5719 5719 5719 5718 5718 5718 5717 5717 5716 5715
5690 5690 5685 5673 5657 5650 5660 5674 5680 5689 5697 5699 5701 5702 5701 5703 5707 5710 5713 5718 5720 5720 5719 5718 5717 5717 5716 5715 5715 5715 5715 5715 5715 5715 5715 5716 5716 5715 5716 5716 5716 5715 5715 5715 5714 5714 5713 5713 5712
5685 5683 5671 5658 5651 5652 5667 5678 5680 5688 5693 5694 5694 5696 5698 5700 5704 5707 5711 5714 5715 5714 5714 5714 5713 5713 5712 5711 5711 5711 5711 5711 5712 5712 5712 5712 5712 5712 5712 5712 5712 5712 5711 5711 5711 5710 5710 5709 5708
5676 5668 5659 5650 5653 5659 5668 5679 5679 5682 5687 5689 5688 5688 5694 5701 5703 5705 5708 5709 5709 5709 5709 5708 5709 5708 5708 5707 5707 5707 5707 5707 5708 5708 5708 5708 5708 5708 5708 5708 5708 5708 5708 5707 5707 5706 5706 5705 5705
5665 5655 5647 5642 5650 5659 5665 5671 5674 5676 5678 5682 5682 5682 5687 5696 5699 5701 5702 5702 5702 5702 5702 5702 5703 5703 5703 5702 5702 5702 5702 5703 5703 5703 5704 5704 5704 5704 5704 5704 5704 5704 5704 5703 5703 5702 5702 5702 5701
5648 5642 5634 5637 5648 5656 5662 5667 5669 5670 5672 5674 5675 5676 5683 5689 5691 5693 5695 5695 5695 5695 5696 5696 5697 5697 5697 5697 5697 5697 5697 5698 5698 5699 5699 5699 5699 5699 5699 5700 5700 5700 5700 5699 5699 5698 5698 5698 5697
5639 5633 5632 5637 5642 5650 5661 5663 5663 5664 5666 5669 5672 5670 5677 5682 5685 5687 5687 5687 5687 5688 5689 5689 5690 5691 5691 5691 5691 5691 5692 5692 5693 5693 5694 5694 5694 5694 5695 5695 5696 5696 5695 5695 5694 5694 5694 5693 5693
5636 5628 5630 5630 5636 5646 5657 5659 5663 5661 5663 5668 5668 5666 5669 5677 5679 5678 5678 5677 5678 5679 5681 5682 5683 5684 5684 5685 5685 5685 5685 5686 5686 5687 5687 5688 5689 5689 5690 5690 5691 5691 5691 5690 5690 5689 5689 5689 5689
5631 5620 5622 5629 5633 5643 5651 5652 5656 5659 5659 5661 5664 5667 5671 5672 5671 5669 5668 5668 5669 5671 5672 5674 5676 5677 5677 5678 5678 5678 5678 5679 5679 5680 5681 5682 5683 5684 5684 5685 5686 5686 5686 5686 5685 5685 5684 5684 5684
5619 5615 5627 5634 5636 5640 5643 5645 5647 5649 5650 5653 5656 5659 5662 5663 5663 5662 5661 5661 5662 5663 5664 5666 5668 5669 5670 5670 5671 5671 5671 5671 5672 5673 5674 5675 5677 5678 5679 5680 5681 5681 5681 5681 5680 5680 5679 5679 5679
5615 5617 5626 5630 5633 5635 5636 5638 5640 5641 5642 5647 5650 5652 5653 5655 5655 5655 5655 5656 5656 5657 5657 5659 5660 5662 5662 5663 5664 5664 5664 5665 5666 5666 5667 5669 5670 5672 5673 5674 5674 5675 5675 5675 5675 5674 5674 5674 5674
5609 5616 5620 5624 5627 5628 5628 5631 5632 5635 5642 5647 5647 5648 5648 5648 5649 5650 5650 5650 5650 5650 5651 5652 5653 5654 5656 5656 5657 5657 5658 5658 5659 5660 5661 5662 5663 5665 5667 5668 5669 5669 5669 5669 5669 5669 5669 5668 5668
5602 5609 5613 5617 5618 5619 5620 5621 5625 5631 5638 5640 5640 5641 5642 5643 5644 5644 5645 5644 5644 5644 5645 5646 5647 5648 5649 5650 5651 5652 5652 5652 5653 5653 5654 5656 5657 5659 5660 5662 5663 5663 5663 5664 5664 5663 5663 5663 5662
5598 5599 5604 5607 5609 5611 5612 5615 5617 5629 5630 5631 5633 5634 5636 5638 5638 5638 5637 5637 5638 5640 5640 5641 5641 5642 5643 5644 5645 5646 5646 5646 5646 5647 5648 5649 5651 5652 5653 5654 5656 5657 5658 5658 5658 5658 5657 5656 5656
5589 5589 5593 5599 5601 5604 5603 5607 5616 5625 5622 5624 5626 5628 5630 5632 5633 5634 5635 5635 5635 5635 5635 5635 5636 5637 5638 5638 5639 5639 5640 5640 5640 5640 5641 5642 5644 5645 5647 5648 5649 5651 5652 5652 5652 5652 5651 5650 5649
5577 5577 5581 5594 5594 5595 5592 5603 5618 5617 5615 5616 5618 5621 5623 5625 5628 5630 5630 5630 5629 5629 5630 5630 5632 5631 5632 5632 5632 5632 5633 5633 5633 5633 5634 5635 5637 5639 5641 5642 5643 5645 5646 5646 5646 5645 5644 5642 5641
5562 5564 5573 5583 5587 5586 5584 5594 5610 5610 5608 5610 5612 5614 5616 5619 5622 5624 5625 5625 5624 5624 5624 5624 5626 5626 5626 5626 5626 5625 5626 5625 5626 5626 5627 5629 5631 5632 5634 5635 5637 5637 5639 5640 5640 5638 5637 5635 5633
5556 5556 5564 5570 5578 5575 5575 5585 5598 5600 5599 5602 5604 5606 5609 5613 5618 5620 5620 5620 5619 5618 5618 5619 5619 5620 5620 5619 5619 5618 5618 5619 5619 5620 5621 5623 5625 5626 5627 5628 5630 5630 5631 5632 5633 5631 5629 5627 5625
5551 5550 5554 5562 5568 5565 5568 5578 5588 5592 5591 5593 5595 5598 5602 5608 5613 5613 5614 5614 5614 5613 5612 5613 5613 5613 5613 5612 5612 5612 5612 5613 5613 5613 5614 5616 5618 5619 5619 5621 5622 5623 5623 5624 5626 5624 5621 5618 5617
5539 5540 5544 5552 5558 5557 5557 5566 5578 5584 5586 5590 5593 5595 5598 5602 5605 5607 5608 5609 5609 5609 5609 5607 5608 5608 5609 5609 5609 5608 5607 5606 5607 5608 5608 5610 5612 5612 5613 5614 5616 5616 5615 5616 5618 5618 5614 5611 5611
5528 5529 5535 5539 5543 5545 5546 5557 5571 5580 5582 5587 5591 5594 5596 5599 5600 5602 5603 5604 5604 5604 5605 5605 5603 5604 5604 5604 5602 5600 5598 5599 5599 5601 5602 5604 5606 5607 5608 5608 5609 5610 5609 5609 5611 5612 5611 5606 5603
5521 5528 5528 5528 5523 5522 5532 5534 5563 5570 5576 5583 5586 5588 5591 5594 5596 5597 5598 5599 5600 5600 5599 5600 5599 5599 5599 5599 5598 5597 5597 5596 5597 5597 5598 5598 5599 5599 5601 5602 5602 5603 5603 5603 5603 5604 5604 5603 5598
5512 5518 5517 5516 5511 5507 5516 5520 5549 5559 5568 5577 5581 5583 5586 5588 5590 5593 5595 5596 5596 5595 5594 5594 5593 5593 5593 5593 5594 5594 5593 5593 5592 5591 5592 5592 5593 5594 5594 5596 5595 5596 5596 5596 5597 5596 5596 5596 5594
5502 5501 5499 5495 5493 5499 5516 5512 5536 5546 5566 5575 5578 5579 5581 5583 5585 5587 5588 5589 5589 5588 5588 5587 5587 5587 5588 5588 5588 5589 5589 5587 5587 5587 5587 5587 5587 5588 5588 5589 5588 5590 5590 5589 5589 5589 5589 5588 5587
5489 5486 5480 5480 5483 5500 5513 5512 5534 5550 5560 5568 5571 5572 5574 5575 5576 5578 5579 5580 5582 5582 5582 5582 5582 5582 5582 5582 5582 5583 5584 5584 5584 5584 5584 5582 5582 5582 5582 5584 5584 5584 5583 5582 5582 5582 5581 5580 5579
5478 5482 5479 5481 5484 5491 5499 5510 5531 5544 5550 5556 5560 5562 5564 5565 5567 5571 5574 5574 5576 5577 5576 5576 5577 5576 5576 5576 5576 5577 5578 5578 5578 5579 5578 5578 5578 5578 5578 5578 5578 5577 5575 5575 5575 5574 5573 5572 5571
5466 5469 5478 5472 5472 5476 5488 5499 5516 5532 5537 5543 5547 5551 5554 5556 5559 5563 5566 5567 5569 5570 5570 5571 5571 5570 5569 5570 5569 5569 5570 5571 5571 5571 5571 5571 5572 5572 5571 5570 5570 5569 5568 5568 5567 5566 5565 5564 5562
5458 5459 5457 5462 5468 5479 5492 5495 5510 5521 5526 5532 5536 5540 5545 5549 5551 5554 5557 5559 5560 5561 5562 5563 5564 5564 5563 5562 5563 5563 5563 5564 5563 5563 5564 5564 5564 5564 5563 5563 5562 5562 5561 5560 5560 5558 5556 5555 5553
5444 5446 5449 5452 5460 5468 5476 5495 5509 5513 5520 5522 5528 5532 5535 5539 5541 5544 5547 5549 5551 5552 5554 5555 5555 5555 5555 5555 5555 5555 5556 5556 5556 5555 5555 5555 5555 5556 5556 5555 5554 5554 5553 5552 5551 5549 5548 5546 5544
5438 5439 5440 5444 5444 5447 5460 5483 5503 5502 5507 5512 5515 5519 5523 5527 5530 5533 5536 5539 5541 5543 5544 5545 5546 5547 5547 5547 5547 5547 5547 5548 5548 5548 5547 5547 5547 5546 5547 5546 5545 5545 5544 5543 5543 5541 5540 5538 5536